Temperature
10 10 10 10 10 10 10 10 10 10 10 11 11 11 11 11 11 11 12 12 12 12 12 12 12 12 12 12 12 12 12 12 12 12 11 11 11 11 11 11 11 11 11
9 9 9 9 10 10 10 10 10 10 10 10 10 10 11 11 11 11 11 11 11 11 12 11 11 11 11 12 12 11 11 11 11 11 11 11 11 11 11 11 11 11 11
9 9 9 9 9 9 9 9 9 9 9 10 10 10 10 10 10 11 11 11 11 11 11 11 11 11 11 11 11 11 11 11 11 11 11 11 11 11 11 11 11 11 11
8 8 8 9 8 9 8 8 9 9 9 9 9 10 10 10 10 10 10 10 11 11 11 11 11 11 11 11 11 11 11 11 11 11 11 11 11 11 11 11 11 11 11
8 8 8 8 8 8 8 8 8 8 8 9 9 9 9 10 10 10 10 10 10 10 10 11 11 11 11 11 11 11 11 11 11 11 11 11 11 11 10 10 11 10 10
7 7 7 7 7 7 7 7 8 8 8 8 8 9 9 9 9 10 10 10 10 10 10 10 10 10 10 10 10 10 10 10 10 10 10 10 10 10 10 10 10 10 10
6 6 7 7 7 7 7 7 7 7 7 7 8 8 8 9 9 9 9 10 10 10 10 10 10 10 10 10 10 10 10 10 10 10 10 10 10 10 10 10 10 10 10
6 6 6 6 6 6 7 7 6 6 6 7 7 7 7 8 8 9 9 9 9 9 10 10 10 10 10 10 10 10 10 10 10 10 10 10 10 10 10 10 10 10 10
5 6 6 6 6 6 6 6 6 6 6 6 6 6 6 7 7 8 9 9 9 9 9 9 10 10 10 10 10 9 9 9 9 9 9 9 9 9 9 9 9 9 10
5 5 5 5 5 5 6 6 6 6 6 6 6 6 6 7 7 7 8 8 8 9 9 9 9 9 9 9 9 9 9 9 9 9 9 9 9 9 9 9 9 9 9
4 4 5 4 5 5 5 5 5 5 5 5 6 6 6 6 6 6 7 8 8 8 8 9 9 9 9 9 9 9 9 9 9 9 9 9 9 9 9 9 9 9 9
3 4 4 4 4 4 5 5 5 5 5 5 5 5 5 6 6 6 6 7 7 8 8 8 9 9 9 9 9 9 9 9 9 9 8 8 8 8 8 8 8 8 8
3 3 3 3 4 4 4 4 4 4 4 4 5 5 5 5 6 6 6 6 6 7 7 8 8 9 9 8 9 9 9 9 8 8 8 8 8 8 8 8 8 8 8
2 2 3 3 3 3 3 4 4 4 4 4 4 4 4 5 5 5 6 6 6 6 7 7 8 8 8 8 8 8 8 8 8 8 8 8 8 8 8 8 7 7 7
2 2 2 2 3 3 3 3 3 4 4 4 4 4 4 4 4 5 5 5 5 5 6 7 7 8 8 8 8 8 8 8 8 8 8 8 8 7 7 7 7 7 7
1 1 2 2 2 2 2 3 3 3 3 4 4 4 4 4 4 4 4 5 5 5 5 6 7 7 8 8 7 7 7 7 8 7 7 7 7 7 7 7 7 7 7
1 1 1 1 2 2 2 2 2 3 3 3 3 3 4 4 4 4 4 4 4 5 5 6 6 6 7 7 7 7 7 7 7 7 7 7 7 7 7 7 7 7 6
0 0 1 1 1 1 2 2 2 2 2 3 3 3 3 3 4 4 4 4 4 4 5 5 5 6 6 6 6 6 6 7 7 7 7 6 6 6 6 6 6 6 6
-0 0 0 0 0 1 1 1 2 2 2 2 2 2 3 3 3 3 3 4 4 4 4 4 5 5 6 6 6 6 6 6 6 6 6 6 6 6 6 6 6 6 6
-1 -0 -0 -0 -0 0 1 1 1 1 2 2 2 2 2 2 2 3 3 3 3 4 4 4 4 5 5 5 5 5 5 5 6 6 5 5 5 5 5 5 5 5 5
-2 -1 -1 -1 -1 -0 -0 0 0 1 1 1 2 2 2 2 2 2 2 3 3 3 3 3 4 4 4 5 5 5 5 5 5 5 5 5 5 5 5 5 5 5 5
-2 -2 -2 -1 -1 -1 -1 -0 -0 0 1 1 1 1 1 1 2 2 2 2 2 3 3 3 3 3 4 4 4 4 4 4 4 4 4 4 4 4 4 4 4 4 4
-3 -2 -2 -2 -2 -1 -1 -1 -1 -0 0 0 1 1 1 1 1 1 1 1 2 2 2 2 2 3 3 4 4 3 3 3 3 3 3 3 3 3 4 3 3 4 4
-4 -3 -3 -2 -2 -2 -2 -2 -1 -1 -1 -0 -0 -0 0 0 0 0 0 1 1 1 2 2 2 2 3 3 3 3 3 2 2 2 2 2 2 3 3 3 3 3 3
-4 -4 -4 -3 -3 -3 -2 -2 -2 -2 -2 -1 -1 -1 -1 -1 -0 -0 -0 -0 0 1 1 1 1 2 2 2 2 2 2 2 1 2 2 1 1 2 2 2 2 3 3
-5 -4 -4 -4 -3 -3 -3 -3 -3 -3 -2 -2 -2 -2 -2 -2 -1 -1 -1 -1 -1 -0 -0 0 0 1 1 1 1 1 1 1 1 1 1 1 1 0 1 1 2 2 2
Wind_Speed
1 2 1 2 2 2 3 3 3 3 2 3 3 3 3 2 2 2 2 2 3 4 4 5 5 6 7 7 8 8 8 8 8 8 7 7 7 7 8 7 8 9 9
1 1 1 1 1 1 2 2 2 1 1 2 1 2 2 2 2 1 2 2 2 3 3 4 4 5 6 7 7 7 7 7 7 7 7 7 7 7 7 7 7 7 7
1 1 1 0 0 1 2 2 2 2 1 1 0 1 2 2 2 2 2 2 2 2 3 4 4 5 6 6 7 7 7 6 6 6 7 7 6 6 6 6 6 6 6
1 0 1 1 1 1 2 1 1 1 0 0 0 1 1 1 2 2 2 2 2 2 3 4 4 5 5 5 7 6 6 6 5 5 6 6 5 5 5 5 5 5 5
2 1 1 1 2 1 1 1 1 0 0 1 1 1 1 1 2 2 2 2 3 3 3 4 5 5 5 4 5 6 6 6 5 5 5 5 5 4 4 4 4 4 4
2 1 1 1 2 1 1 1 1 0 1 0 1 1 1 2 2 2 3 3 3 3 4 5 5 5 5 4 4 5 5 5 5 5 5 5 4 3 3 3 3 2 3
2 2 1 1 1 2 3 2 1 1 0 0 0 1 2 2 3 3 3 3 3 4 4 5 5 5 5 6 5 5 5 6 6 6 6 5 4 3 2 2 2 3 3
2 2 1 1 2 2 3 2 2 1 1 1 1 1 1 2 2 3 3 3 3 3 4 5 5 6 6 5 6 6 6 6 6 6 6 6 5 4 4 3 3 3 3
2 2 3 2 2 3 4 4 4 3 2 2 2 2 2 3 2 2 3 3 3 3 4 5 6 7 7 6 6 6 6 7 8 7 7 7 7 6 5 5 4 3 4
3 3 3 3 3 3 4 5 4 3 4 4 2 2 2 2 2 2 2 3 4 4 4 4 6 7 8 7 7 7 8 8 8 9 9 8 8 7 7 6 5 5 4
4 4 4 4 3 3 4 5 5 4 4 4 3 2 1 1 2 2 3 3 2 4 4 5 6 7 8 9 8 8 9 9 9 9 10 9 9 8 7 6 6 5 5
4 4 5 5 4 4 4 6 6 6 6 5 4 3 3 3 3 3 3 4 4 3 4 4 5 7 8 9 9 9 10 10 10 9 9 8 8 8 7 6 6 5 5
4 5 5 5 5 5 5 5 6 7 7 7 6 5 4 4 3 3 3 3 3 3 2 3 5 7 8 9 10 10 10 10 10 9 9 8 7 6 7 7 7 7 6
6 6 6 7 7 6 6 6 6 7 7 8 8 7 5 5 4 3 4 3 3 3 3 4 3 5 7 8 10 10 10 11 10 9 9 8 8 7 7 6 6 7 7
6 7 6 7 7 7 7 7 6 8 7 8 8 8 7 5 5 4 4 5 5 4 5 4 3 4 6 7 9 10 10 11 10 10 9 9 8 8 7 7 6 6 7
6 6 6 7 7 7 7 7 7 7 8 8 7 8 8 6 6 5 6 5 5 5 5 4 4 4 5 6 9 10 10 11 11 10 10 10 9 8 8 8 7 7 7
6 6 6 6 7 7 7 7 8 8 9 9 8 8 9 7 6 6 6 6 6 5 7 5 4 3 4 4 5 7 9 9 10 11 11 10 10 10 9 8 8 7 7
5 5 5 6 6 6 6 7 8 8 9 9 9 8 8 6 7 6 6 7 7 6 6 7 5 4 5 5 4 5 6 8 9 10 11 11 11 11 10 10 9 8 8
5 5 5 6 6 6 6 7 7 8 9 9 9 9 8 7 8 6 6 7 6 6 5 6 5 4 4 3 3 3 4 5 6 9 10 11 11 11 11 11 10 10 9
5 5 6 6 6 6 6 7 7 7 8 8 8 8 8 9 9 8 7 7 7 6 6 6 5 4 4 4 4 4 4 4 4 5 7 8 10 11 11 11 11 11 11
6 6 6 6 5 5 6 7 7 7 7 8 8 7 7 8 9 8 7 7 7 7 6 6 6 5 5 5 6 4 4 3 4 4 3 4 6 6 8 10 12 12 12
6 6 6 6 6 6 7 8 7 6 6 7 8 7 7 7 7 8 9 9 9 8 8 7 7 8 7 6 5 5 4 3 4 3 4 4 4 4 6 9 11 12 12
5 6 6 6 6 7 8 8 9 5 5 6 6 6 6 5 6 5 7 7 8 9 9 8 8 9 7 7 7 6 6 5 5 4 3 4 4 5 6 8 10 11 12
5 5 5 5 6 7 8 8 8 5 5 5 5 6 6 5 5 6 6 6 6 6 7 6 7 8 7 6 8 7 6 3 2 2 3 4 4 4 4 6 9 10 11
5 5 5 5 5 6 8 8 8 5 5 5 5 5 5 5 6 6 6 6 6 5 6 7 7 7 8 7 6 4 5 5 4 3 3 3 3 2 3 4 6 9 10
5 5 5 4 4 5 7 7 7 5 5 5 5 5 6 6 6 6 6 6 7 6 4 4 4 5 4 4 6 6 6 6 4 3 3 3 2 2 2 3 3 5 7
Wind_Direction
92 93 92 103 86 86 87 73 66 53 60 87 103 111 105 104 92 104 113 116 129 136 141 140 138 135 130 127 125 118 110 113 117 116 111 109 103 111 113 109 105 102 97
104 119 110 101 93 115 117 110 90 74 68 102 105 124 131 139 130 119 125 129 137 142 154 158 155 147 139 135 130 125 120 115 115 116 117 114 111 108 114 114 113 109 105
115 148 155 149 205 152 120 98 73 71 66 50 351 150 150 158 156 150 149 138 146 162 175 169 157 152 145 144 140 136 133 127 122 122 117 116 114 116 114 117 120 117 113
360 136 182 205 202 155 132 123 100 51 25 354 286 263 183 171 182 183 181 166 156 157 176 168 163 157 147 145 148 151 148 143 137 136 130 122 117 121 125 116 126 128 122
338 316 236 214 188 164 145 163 141 121 244 308 287 286 264 220 220 199 193 184 180 172 173 180 172 168 162 157 157 160 160 156 152 150 147 140 131 129 131 127 115 131 135
327 314 312 221 181 173 177 172 183 209 201 216 300 303 281 249 229 216 212 196 197 195 191 184 179 175 175 178 175 173 171 170 168 160 156 156 151 149 146 149 151 128 138
298 313 326 296 193 189 196 182 182 178 192 80 16 330 309 263 232 226 220 208 212 208 199 191 185 185 188 192 194 190 187 188 184 179 176 176 172 167 168 169 163 161 145
276 276 298 271 242 198 192 188 172 181 221 192 166 169 277 285 254 234 219 210 214 208 208 207 197 196 196 197 206 205 202 202 197 195 191 192 198 202 200 204 197 184 177
261 266 265 246 255 210 202 202 191 185 204 233 214 177 183 228 259 257 230 217 208 206 215 213 209 207 205 205 209 212 211 216 214 213 208 206 210 212 216 216 211 205 200
256 254 259 243 239 235 210 209 200 205 192 213 235 236 229 199 203 253 257 231 215 213 215 219 219 217 213 210 215 218 218 222 223 222 219 218 219 222 222 220 219 217 211
259 255 255 244 231 240 222 209 210 210 201 212 217 221 245 266 225 221 244 244 247 232 224 219 220 221 218 214 216 220 221 223 224 224 224 224 223 224 225 225 224 226 222
253 259 261 248 236 239 237 221 210 212 214 215 221 213 209 211 216 223 235 242 249 249 240 226 217 220 218 214 216 219 221 221 224 225 221 220 221 221 220 221 220 218 216
252 250 261 253 243 243 245 239 218 217 217 217 220 223 222 228 219 227 235 244 262 274 255 239 224 221 220 216 217 217 219 216 218 221 218 215 217 220 222 222 223 219 218
249 252 254 254 248 247 247 242 231 224 220 222 228 226 229 230 221 223 221 222 250 269 258 248 234 217 221 218 218 212 219 217 214 217 217 214 214 217 217 219 225 227 223
260 253 252 255 248 245 244 240 234 230 225 224 229 229 230 232 224 224 224 216 214 239 247 242 232 223 225 221 220 214 216 218 214 214 215 215 215 214 213 214 219 228 230
267 256 250 256 250 242 241 237 239 235 227 228 230 230 231 231 225 222 223 226 225 227 244 240 245 249 232 228 225 218 215 215 216 216 216 215 214 211 212 214 217 224 230
263 258 252 255 251 241 239 237 237 237 233 231 231 233 234 232 227 224 223 223 227 226 244 258 257 253 230 227 229 222 215 211 216 219 218 215 212 211 210 210 214 221 227
266 262 255 256 254 244 239 238 240 239 234 231 232 234 236 235 234 229 226 228 229 225 229 245 246 240 235 221 223 215 215 215 216 218 219 216 217 218 214 212 213 217 224
271 272 261 255 252 249 245 242 240 239 236 231 230 233 232 229 235 235 231 230 232 231 227 233 242 242 233 221 220 212 205 210 219 220 220 220 222 221 218 217 216 217 220
268 265 259 258 254 253 253 249 243 243 242 235 235 232 227 227 231 232 234 232 231 228 225 224 234 239 231 218 203 204 215 211 221 220 220 224 222 219 219 220 219 220 223
270 264 261 256 256 255 256 251 243 245 244 243 238 231 231 235 237 233 236 230 224 222 221 225 228 236 225 208 209 202 215 221 233 209 207 222 219 221 223 221 222 226 228
283 269 261 256 256 260 272 272 264 246 246 247 243 236 237 238 245 246 249 244 233 224 221 226 233 231 226 219 211 205 206 211 236 200 195 228 210 224 229 225 226 228 230
288 283 266 257 256 265 273 271 270 257 246 248 249 241 241 244 247 242 249 251 245 243 235 228 230 234 222 210 204 209 212 222 238 206 198 234 215 234 236 233 229 227 230
282 282 281 271 267 274 275 270 267 257 246 247 249 244 240 240 241 240 236 237 236 239 240 236 233 237 229 214 207 212 211 221 245 212 198 238 226 237 246 232 230 229 231
283 281 281 278 278 289 291 281 270 251 249 253 254 251 247 240 256 253 238 236 240 243 247 245 246 246 236 223 207 191 192 199 231 231 200 209 225 244 240 237 232 228 229
282 287 290 286 279 283 295 295 283 255 251 255 257 252 252 252 255 255 239 229 233 240 232 240 250 255 235 209 202 203 202 205 219 232 203 189 214 218 248 238 225 228 233
Height
1533 1533 1534 1535 1536 1537 1538 1539 1540 1541 1542 1542 1543 1544 1545 1546 1546 1548 1549 1550 1551 1551 1552 1553 1554 1555 1556 1557 1557 1557 1558 1558 1559 1559 1560 1560 1561 1561 1561 1562 1562 1562 1562
1531 1532 1533 1533 1534 1535 1536 1537 1538 1539 1540 1541 1542 1543 1543 1544 1545 1546 1547 1548 1549 1550 1551 1552 1553 1555 1555 1556 1557 1557 1558 1558 1559 1559 1560 1561 1561 1561 1562 1562 1562 1562 1562
1528 1529 1530 1531 1532 1533 1534 1535 1536 1538 1538 1539 1540 1541 1542 1543 1544 1545 1546 1547 1548 1549 1550 1551 1552 1553 1554 1555 1556 1556 1557 1558 1559 1559 1560 1560 1561 1561 1562 1562 1562 1563 1563
1526 1527 1528 1529 1530 1531 1532 1533 1534 1535 1536 1537 1537 1538 1539 1541 1542 1543 1544 1545 1546 1547 1548 1550 1551 1552 1553 1554 1555 1555 1556 1557 1558 1558 1559 1560 1560 1561 1561 1562 1562 1563 1563
1523 1523 1525 1526 1527 1528 1529 1530 1531 1533 1534 1534 1535 1536 1537 1538 1539 1540 1542 1543 1544 1545 1547 1548 1549 1550 1551 1552 1553 1554 1555 1556 1557 1557 1558 1559 1559 1560 1561 1561 1561 1562 1562
1519 1520 1521 1523 1524 1525 1526 1528 1529 1530 1531 1532 1533 1533 1534 1535 1537 1538 1539 1540 1542 1543 1544 1546 1547 1548 1549 1551 1552 1553 1554 1555 1556 1556 1557 1557 1558 1559 1559 1560 1560 1561 1561
1516 1517 1517 1519 1521 1522 1523 1524 1526 1527 1528 1530 1531 1530 1531 1533 1534 1535 1536 1537 1539 1541 1542 1543 1544 1546 1547 1549 1550 1551 1552 1553 1554 1555 1555 1556 1556 1557 1558 1558 1559 1559 1560
1512 1513 1514 1515 1517 1518 1520 1521 1523 1523 1525 1527 1528 1528 1529 1530 1530 1531 1533 1534 1536 1538 1539 1540 1542 1543 1544 1546 1547 1549 1550 1551 1552 1553 1553 1554 1554 1555 1556 1556 1557 1557 1558
1508 1509 1510 1511 1513 1514 1515 1517 1519 1520 1521 1524 1526 1527 1527 1526 1527 1528 1528 1530 1532 1534 1536 1537 1539 1540 1542 1543 1545 1546 1547 1548 1549 1550 1551 1552 1552 1553 1553 1554 1555 1555 1555
1503 1504 1506 1507 1508 1509 1511 1513 1514 1516 1518 1519 1521 1523 1525 1524 1525 1524 1525 1526 1528 1530 1532 1534 1535 1537 1538 1540 1541 1543 1544 1545 1546 1547 1548 1549 1550 1550 1551 1552 1552 1553 1553
1498 1499 1501 1502 1503 1504 1506 1508 1510 1512 1513 1515 1516 1518 1520 1521 1522 1522 1521 1521 1523 1526 1528 1529 1531 1533 1535 1536 1537 1539 1541 1542 1543 1544 1545 1546 1546 1547 1548 1549 1549 1550 1550
1493 1495 1496 1497 1498 1499 1501 1503 1504 1506 1508 1510 1512 1513 1515 1516 1517 1518 1518 1518 1519 1521 1523 1525 1527 1529 1530 1532 1533 1535 1537 1538 1539 1541 1541 1542 1543 1544 1545 1546 1546 1546 1546
1488 1489 1491 1492 1493 1494 1496 1497 1499 1501 1503 1505 1506 1508 1510 1512 1514 1515 1515 1515 1516 1516 1518 1520 1522 1524 1526 1528 1529 1531 1533 1534 1535 1537 1538 1538 1540 1541 1541 1542 1543 1543 1543
1483 1485 1485 1486 1487 1489 1491 1492 1494 1496 1498 1499 1501 1503 1505 1507 1509 1510 1511 1512 1512 1512 1513 1514 1516 1518 1521 1522 1524 1527 1528 1530 1531 1532 1534 1535 1536 1537 1537 1538 1539 1539 1540
1478 1479 1479 1480 1481 1483 1485 1486 1488 1490 1492 1494 1496 1497 1499 1501 1503 1505 1506 1508 1509 1508 1508 1509 1511 1513 1515 1517 1519 1521 1523 1525 1526 1528 1529 1530 1531 1532 1533 1534 1534 1535 1536
1472 1473 1473 1474 1475 1477 1479 1480 1482 1484 1486 1487 1490 1491 1493 1495 1497 1499 1501 1502 1503 1504 1503 1503 1505 1507 1509 1511 1514 1516 1518 1520 1521 1523 1524 1525 1526 1527 1528 1529 1529 1530 1531
1466 1466 1467 1468 1469 1470 1472 1474 1475 1477 1479 1481 1482 1484 1486 1488 1490 1492 1494 1495 1497 1498 1498 1497 1500 1502 1503 1505 1507 1510 1512 1514 1516 1517 1519 1520 1521 1522 1523 1524 1524 1525 1526
1461 1461 1461 1462 1463 1464 1465 1467 1468 1470 1472 1473 1475 1476 1478 1481 1483 1484 1486 1488 1490 1491 1492 1491 1493 1495 1497 1499 1501 1503 1505 1508 1510 1512 1513 1514 1516 1517 1518 1518 1519 1520 1521
1454 1455 1456 1456 1457 1457 1459 1460 1462 1463 1465 1466 1468 1469 1471 1474 1475 1477 1479 1481 1482 1484 1486 1486 1486 1488 1490 1493 1495 1497 1499 1501 1503 1505 1507 1508 1510 1511 1512 1513 1514 1514 1515
1449 1449 1449 1450 1450 1451 1453 1454 1455 1457 1458 1460 1461 1463 1464 1466 1468 1470 1471 1473 1475 1477 1479 1480 1481 1482 1484 1486 1489 1490 1492 1495 1496 1499 1500 1502 1503 1504 1506 1507 1508 1508 1509
1443 1443 1443 1444 1444 1445 1446 1448 1449 1450 1451 1452 1454 1456 1458 1459 1461 1463 1464 1466 1468 1469 1471 1473 1474 1475 1477 1479 1481 1483 1485 1487 1490 1492 1493 1495 1497 1498 1499 1500 1501 1502 1503
1438 1438 1438 1438 1438 1439 1440 1442 1443 1443 1444 1445 1446 1448 1450 1452 1454 1455 1457 1459 1460 1462 1463 1465 1466 1468 1469 1472 1475 1476 1478 1480 1482 1485 1486 1488 1490 1491 1492 1494 1495 1496 1497
1433 1432 1432 1432 1432 1433 1435 1436 1436 1437 1438 1439 1440 1442 1443 1445 1446 1448 1450 1451 1453 1454 1457 1458 1459 1460 1462 1465 1468 1470 1472 1474 1475 1478 1480 1480 1482 1483 1486 1487 1488 1489 1491
1428 1427 1426 1427 1427 1427 1429 1430 1431 1431 1432 1433 1434 1435 1437 1438 1439 1441 1442 1443 1445 1447 1449 1451 1453 1454 1457 1459 1461 1463 1465 1467 1469 1472 1474 1474 1475 1477 1478 1480 1481 1483 1484
1423 1422 1421 1421 1421 1421 1423 1424 1425 1426 1425 1426 1428 1430 1431 1431 1433 1435 1436 1437 1438 1440 1442 1444 1446 1448 1450 1452 1455 1457 1458 1460 1461 1463 1466 1468 1469 1470 1471 1472 1474 1476 1477
1418 1417 1416 1416 1416 1416 1417 1418 1419 1419 1419 1421 1422 1424 1425 1426 1427 1429 1430 1431 1431 1433 1436 1438 1440 1442 1443 1445 1447 1450 1452 1453 1455 1457 1459 1462 1463 1465 1464 1465 1467 1468 1470